Login

Stavanger

Pos Pair Lane Name Born Nation Time
1 10 I Kazuya Yamada 2001 Japan 1:09.51
2 12 O Damian Żurek 1999 Poland 1:10.11
3 14 O David Bosa 1992 Italy 1:10.25
4 8 O Nil Llop 2002 Spain 1:10.47
5 5 O Peder Kongshaug 2001 Norway 1:10.50
6 14 I Ziwen Lian 1998 China 1:10.55
7 11 I Hendrik Dombek 1997 Germany 1:10.58
8 13 I Cooper McLeod 2001 USA 1:10.64
9 7 I Odin By Farstad 1997 Norway 1:10.67
10 11 O Austin Kleba 1999 USA 1:10.69
11 8 I Haotian Wang 1998 China 1:10.70
12 12 I Conor McDermott-Mostowy 1999 USA 1:10.76
13 13 O Mathias Vosté 1994 Belgium 1:10.84
14 7 O Samuli Suomalainen 1998 Finland 1:11.01
15 1 I Seonghyeon Park 1999 South Korea 1:11.33
16 6 I Stefan Emele 1996 Germany 1:11.34
17 2 I Artur Galiyev 2000 Kazakhstan 1:11.38
18 9 I Dmitriy Morozov 1996 Kazakhstan 1:11.511
19 4 O Marcin Bachanek 1996 Poland 1:11.517
20 4 I Kyungrae Kim 2003 South Korea 1:11.57
21 3 I Pål Myhren Kristensen 2000 Norway 1:11.59
22 3 O Alessio Trentini 1994 Italy 1:11.80
23 9 O Wei-Lin Tai 1997 Taiwan 1:12.11
24 6 O Michael Roth 1999 Germany 1:12.31
25 2 O Jakub Piotrowski 2000 Poland 1:12.32
26 10 O Christopher Fiola 1996 Canada 1:14.09
27 5 I Ignaz Gschwentner 2002 Austria 1:14.13

Info

What World Cup B-group
Discipline 1.000
Host Stavanger
Nation Norway
Date Sunday 13.Nov 2022
Calendar 2022/2023
Air Temp 14.0 C
Ice Temp -7.1 C
Humidity 44.0 %